#datetime,building,power
2022-02-19T00:00:00,mcc,54.20
2022-02-19T00:01:00,mcc,51.32
2022-02-19T00:02:00,mcc,51.22
2022-02-19T00:03:00,mcc,52.87
2022-02-19T00:04:00,mcc,46.68
2022-02-19T00:05:00,mcc,48.33
2022-02-19T00:06:00,mcc,51.04
2022-02-19T00:07:00,mcc,50.65
2022-02-19T00:08:00,mcc,48.02
2022-02-19T00:09:00,mcc,49.54
2022-02-19T00:10:00,mcc,47.71
2022-02-19T00:11:00,mcc,47.77
2022-02-19T00:12:00,mcc,49.09
2022-02-19T00:13:00,mcc,47.30
2022-02-19T00:14:00,mcc,47.31
2022-02-19T00:15:00,mcc,49.57
2022-02-19T00:16:00,mcc,49.86
2022-02-19T00:17:00,mcc,52.39
2022-02-19T00:18:00,mcc,50.80
2022-02-19T00:19:00,mcc,49.92
2022-02-19T00:20:00,mcc,49.76
2022-02-19T00:21:00,mcc,49.90
2022-02-19T00:22:00,mcc,66.71
2022-02-19T00:23:00,mcc,59.87
2022-02-19T00:24:00,mcc,58.98
2022-02-19T00:25:00,mcc,58.16
2022-02-19T00:26:00,mcc,55.07
2022-02-19T00:27:00,mcc,46.67
2022-02-19T00:28:00,mcc,48.65
2022-02-19T00:29:00,mcc,49.47
2022-02-19T00:30:00,mcc,47.15
2022-02-19T00:31:00,mcc,70.29
2022-02-19T00:32:00,mcc,46.72
2022-02-19T00:33:00,mcc,48.60
2022-02-19T00:34:00,mcc,47.15
2022-02-19T00:35:00,mcc,45.97
2022-02-19T00:36:00,mcc,48.77
2022-02-19T00:37:00,mcc,44.29
2022-02-19T00:38:00,mcc,45.06
2022-02-19T00:39:00,mcc,42.95
2022-02-19T00:40:00,mcc,43.52
2022-02-19T00:41:00,mcc,41.16
2022-02-19T00:42:00,mcc,40.92
2022-02-19T00:43:00,mcc,41.66
2022-02-19T00:44:00,mcc,42.96
2022-02-19T00:45:00,mcc,45.10
2022-02-19T00:46:00,mcc,45.19
2022-02-19T00:47:00,mcc,44.83
2022-02-19T00:48:00,mcc,44.46
2022-02-19T00:49:00,mcc,42.97
2022-02-19T00:50:00,mcc,50.43
2022-02-19T00:51:00,mcc,41.61
2022-02-19T00:52:00,mcc,41.35
2022-02-19T00:53:00,mcc,40.96
2022-02-19T00:54:00,mcc,36.26
2022-02-19T00:55:00,mcc,36.02
2022-02-19T00:56:00,mcc,40.48
2022-02-19T00:57:00,mcc,38.79
2022-02-19T00:58:00,mcc,39.18
2022-02-19T00:59:00,mcc,40.60
2022-02-19T01:00:00,mcc,40.52
2022-02-19T01:01:00,mcc,41.35
2022-02-19T01:02:00,mcc,44.98
2022-02-19T01:03:00,mcc,42.07
2022-02-19T01:04:00,mcc,41.71
2022-02-19T01:05:00,mcc,40.09
2022-02-19T01:06:00,mcc,40.60
2022-02-19T01:07:00,mcc,42.39
2022-02-19T01:08:00,mcc,40.26
2022-02-19T01:09:00,mcc,42.33
2022-02-19T01:10:00,mcc,41.49
2022-02-19T01:11:00,mcc,42.82
2022-02-19T01:12:00,mcc,39.81
2022-02-19T01:13:00,mcc,40.29
2022-02-19T01:14:00,mcc,42.33
2022-02-19T01:15:00,mcc,42.15
2022-02-19T01:16:00,mcc,44.51
2022-02-19T01:17:00,mcc,45.73
2022-02-19T01:18:00,mcc,43.52
2022-02-19T01:19:00,mcc,41.70
2022-02-19T01:20:00,mcc,45.39
2022-02-19T01:21:00,mcc,40.76
2022-02-19T01:22:00,mcc,41.50
2022-02-19T01:23:00,mcc,43.03
2022-02-19T01:24:00,mcc,41.02
2022-02-19T01:25:00,mcc,42.44
2022-02-19T01:26:00,mcc,43.27
2022-02-19T01:27:00,mcc,48.92
2022-02-19T01:28:00,mcc,40.65
2022-02-19T01:29:00,mcc,43.24
2022-02-19T01:30:00,mcc,42.18
2022-02-19T01:31:00,mcc,41.41
2022-02-19T01:32:00,mcc,43.05
2022-02-19T01:33:00,mcc,40.02
2022-02-19T01:34:00,mcc,40.62
2022-02-19T01:35:00,mcc,43.03
2022-02-19T01:36:00,mcc,41.53
2022-02-19T01:37:00,mcc,43.17
2022-02-19T01:38:00,mcc,44.84
2022-02-19T01:39:00,mcc,43.35
2022-02-19T01:40:00,mcc,42.41
2022-02-19T01:41:00,mcc,42.24
2022-02-19T01:42:00,mcc,40.31
2022-02-19T01:43:00,mcc,43.95
2022-02-19T01:44:00,mcc,47.57
2022-02-19T01:45:00,mcc,46.63
2022-02-19T01:46:00,mcc,45.48
2022-02-19T01:47:00,mcc,47.44
2022-02-19T01:48:00,mcc,42.87
2022-02-19T01:49:00,mcc,45.14
2022-02-19T01:50:00,mcc,46.66
2022-02-19T01:51:00,mcc,44.72
2022-02-19T01:52:00,mcc,42.74
2022-02-19T01:53:00,mcc,44.02
2022-02-19T01:54:00,mcc,41.87
2022-02-19T01:55:00,mcc,41.84
2022-02-19T01:56:00,mcc,43.10
2022-02-19T01:57:00,mcc,42.73
2022-02-19T01:58:00,mcc,42.57
2022-02-19T01:59:00,mcc,45.78
2022-02-19T02:00:00,mcc,42.24
2022-02-19T02:01:00,mcc,42.22
2022-02-19T02:02:00,mcc,43.61
2022-02-19T02:03:00,mcc,50.21
2022-02-19T02:04:00,mcc,48.38
2022-02-19T02:05:00,mcc,43.32
2022-02-19T02:06:00,mcc,40.99
2022-02-19T02:07:00,mcc,41.49
2022-02-19T02:08:00,mcc,44.36
2022-02-19T02:09:00,mcc,41.34
2022-02-19T02:10:00,mcc,48.11
2022-02-19T02:11:00,mcc,50.54
2022-02-19T02:12:00,mcc,50.62
2022-02-19T02:13:00,mcc,43.40
2022-02-19T02:14:00,mcc,45.04
2022-02-19T02:15:00,mcc,43.62
2022-02-19T02:16:00,mcc,42.04
2022-02-19T02:17:00,mcc,44.71
2022-02-19T02:18:00,mcc,42.27
2022-02-19T02:19:00,mcc,42.62
2022-02-19T02:20:00,mcc,45.29
2022-02-19T02:21:00,mcc,43.50
2022-02-19T02:22:00,mcc,50.57
2022-02-19T02:23:00,mcc,43.62
2022-02-19T02:24:00,mcc,40.23
2022-02-19T02:25:00,mcc,38.57
2022-02-19T02:26:00,mcc,53.80
2022-02-19T02:27:00,mcc,51.38
2022-02-19T02:28:00,mcc,49.51
2022-02-19T02:29:00,mcc,43.40
2022-02-19T02:30:00,mcc,39.60
2022-02-19T02:31:00,mcc,39.60
2022-02-19T02:32:00,mcc,42.60
2022-02-19T02:33:00,mcc,40.56
2022-02-19T02:34:00,mcc,39.12
2022-02-19T02:35:00,mcc,38.21
2022-02-19T02:36:00,mcc,36.28
2022-02-19T02:37:00,mcc,35.87
2022-02-19T02:38:00,mcc,37.93
2022-02-19T02:39:00,mcc,36.29
2022-02-19T02:40:00,mcc,36.57
2022-02-19T02:41:00,mcc,39.59
2022-02-19T02:42:00,mcc,41.36
2022-02-19T02:43:00,mcc,40.87
2022-02-19T02:44:00,mcc,41.88
2022-02-19T02:45:00,mcc,39.15
2022-02-19T02:46:00,mcc,38.78
2022-02-19T02:47:00,mcc,41.63
2022-02-19T02:48:00,mcc,38.36
2022-02-19T02:49:00,mcc,38.40
2022-02-19T02:50:00,mcc,38.64
2022-02-19T02:51:00,mcc,36.04
2022-02-19T02:52:00,mcc,35.65
2022-02-19T02:53:00,mcc,38.89
2022-02-19T02:54:00,mcc,37.39
2022-02-19T02:55:00,mcc,36.30
2022-02-19T02:56:00,mcc,36.54
2022-02-19T02:57:00,mcc,35.75
2022-02-19T02:58:00,mcc,44.25
2022-02-19T02:59:00,mcc,38.11
2022-02-19T03:00:00,mcc,40.86
2022-02-19T03:01:00,mcc,39.29
2022-02-19T03:02:00,mcc,41.19
2022-02-19T03:03:00,mcc,39.46
2022-02-19T03:04:00,mcc,38.61
2022-02-19T03:05:00,mcc,38.16
2022-02-19T03:06:00,mcc,37.61
2022-02-19T03:07:00,mcc,39.33
2022-02-19T03:08:00,mcc,41.43
2022-02-19T03:09:00,mcc,39.45
2022-02-19T03:10:00,mcc,39.81
2022-02-19T03:11:00,mcc,38.65
2022-02-19T03:12:00,mcc,37.36
2022-02-19T03:13:00,mcc,38.70
2022-02-19T03:14:00,mcc,40.60
2022-02-19T03:15:00,mcc,42.23
2022-02-19T03:16:00,mcc,48.34
2022-02-19T03:17:00,mcc,41.65
2022-02-19T03:18:00,mcc,38.33
2022-02-19T03:19:00,mcc,38.39
2022-02-19T03:20:00,mcc,39.19
2022-02-19T03:21:00,mcc,35.55
2022-02-19T03:22:00,mcc,37.15
2022-02-19T03:23:00,mcc,39.73
2022-02-19T03:24:00,mcc,37.74
2022-02-19T03:25:00,mcc,40.53
2022-02-19T03:26:00,mcc,43.84
2022-02-19T03:27:00,mcc,40.83
2022-02-19T03:28:00,mcc,40.50
2022-02-19T03:29:00,mcc,42.23
2022-02-19T03:30:00,mcc,39.40
2022-02-19T03:31:00,mcc,39.24
2022-02-19T03:32:00,mcc,41.47
2022-02-19T03:33:00,mcc,35.81
2022-02-19T03:34:00,mcc,37.22
2022-02-19T03:35:00,mcc,39.65
2022-02-19T03:36:00,mcc,41.02
2022-02-19T03:37:00,mcc,39.60
2022-02-19T03:38:00,mcc,38.80
2022-02-19T03:39:00,mcc,36.20
2022-02-19T03:40:00,mcc,37.48
2022-02-19T03:41:00,mcc,38.47
2022-02-19T03:42:00,mcc,39.14
2022-02-19T03:43:00,mcc,40.91
2022-02-19T03:44:00,mcc,40.99
2022-02-19T03:45:00,mcc,40.81
2022-02-19T03:46:00,mcc,39.15
2022-02-19T03:47:00,mcc,40.88
2022-02-19T03:48:00,mcc,37.91
2022-02-19T03:49:00,mcc,36.19
2022-02-19T03:50:00,mcc,39.05
2022-02-19T03:51:00,mcc,36.60
2022-02-19T03:52:00,mcc,36.80
2022-02-19T03:53:00,mcc,46.70
2022-02-19T03:54:00,mcc,37.81
2022-02-19T03:55:00,mcc,37.09
2022-02-19T03:56:00,mcc,38.97
2022-02-19T03:57:00,mcc,36.69
2022-02-19T03:58:00,mcc,39.51
2022-02-19T03:59:00,mcc,39.99
2022-02-19T04:00:00,mcc,36.83
2022-02-19T04:01:00,mcc,37.62
2022-02-19T04:02:00,mcc,38.82
2022-02-19T04:03:00,mcc,34.78
2022-02-19T04:04:00,mcc,35.59
2022-02-19T04:05:00,mcc,36.05
2022-02-19T04:06:00,mcc,36.45
2022-02-19T04:07:00,mcc,35.44
2022-02-19T04:08:00,mcc,38.81
2022-02-19T04:09:00,mcc,36.30
2022-02-19T04:10:00,mcc,37.55
2022-02-19T04:11:00,mcc,47.10
2022-02-19T04:12:00,mcc,36.32
2022-02-19T04:13:00,mcc,36.54
2022-02-19T04:14:00,mcc,38.15
2022-02-19T04:15:00,mcc,37.41
2022-02-19T04:16:00,mcc,37.07
2022-02-19T04:17:00,mcc,38.93
2022-02-19T04:18:00,mcc,35.03
2022-02-19T04:19:00,mcc,36.95
2022-02-19T04:20:00,mcc,38.13
2022-02-19T04:21:00,mcc,34.02
2022-02-19T04:22:00,mcc,35.59
2022-02-19T04:23:00,mcc,38.44
2022-02-19T04:24:00,mcc,36.66
2022-02-19T04:25:00,mcc,35.40
2022-02-19T04:26:00,mcc,39.11
2022-02-19T04:27:00,mcc,37.66
2022-02-19T04:28:00,mcc,42.16
2022-02-19T04:29:00,mcc,43.27
2022-02-19T04:30:00,mcc,48.69
2022-02-19T04:31:00,mcc,39.78
2022-02-19T04:32:00,mcc,38.75
2022-02-19T04:33:00,mcc,36.14
2022-02-19T04:34:00,mcc,36.00
2022-02-19T04:35:00,mcc,37.11
2022-02-19T04:36:00,mcc,35.24
2022-02-19T04:37:00,mcc,35.76
2022-02-19T04:38:00,mcc,38.69
2022-02-19T04:39:00,mcc,37.73
2022-02-19T04:40:00,mcc,39.00
2022-02-19T04:41:00,mcc,40.65
2022-02-19T04:42:00,mcc,37.11
2022-02-19T04:43:00,mcc,36.68
2022-02-19T04:44:00,mcc,39.56
2022-02-19T04:45:00,mcc,37.59
2022-02-19T04:46:00,mcc,37.36
2022-02-19T04:47:00,mcc,39.18
2022-02-19T04:48:00,mcc,36.06
2022-02-19T04:49:00,mcc,35.54
2022-02-19T04:50:00,mcc,38.49
2022-02-19T04:51:00,mcc,44.02
2022-02-19T04:52:00,mcc,43.86
2022-02-19T04:53:00,mcc,45.64
2022-02-19T04:54:00,mcc,44.25
2022-02-19T04:55:00,mcc,44.37
2022-02-19T04:56:00,mcc,39.76
2022-02-19T04:57:00,mcc,36.45
2022-02-19T04:58:00,mcc,37.62
2022-02-19T04:59:00,mcc,40.27
2022-02-19T05:00:00,mcc,38.44
2022-02-19T05:01:00,mcc,39.98
2022-02-19T05:02:00,mcc,41.77
2022-02-19T05:03:00,mcc,36.73
2022-02-19T05:04:00,mcc,36.25
2022-02-19T05:05:00,mcc,46.59
2022-02-19T05:06:00,mcc,37.15
2022-02-19T05:07:00,mcc,38.54
2022-02-19T05:08:00,mcc,42.76
2022-02-19T05:09:00,mcc,40.59
2022-02-19T05:10:00,mcc,42.23
2022-02-19T05:11:00,mcc,42.13
2022-02-19T05:12:00,mcc,40.01
2022-02-19T05:13:00,mcc,39.31
2022-02-19T05:14:00,mcc,40.69
2022-02-19T05:15:00,mcc,41.27
2022-02-19T05:16:00,mcc,40.08
2022-02-19T05:17:00,mcc,43.36
2022-02-19T05:18:00,mcc,37.39
2022-02-19T05:19:00,mcc,37.85
2022-02-19T05:20:00,mcc,40.62
2022-02-19T05:21:00,mcc,37.11
2022-02-19T05:22:00,mcc,38.33
2022-02-19T05:23:00,mcc,38.93
2022-02-19T05:24:00,mcc,36.28
2022-02-19T05:25:00,mcc,36.14
2022-02-19T05:26:00,mcc,39.17
2022-02-19T05:27:00,mcc,35.10
2022-02-19T05:28:00,mcc,34.56
2022-02-19T05:29:00,mcc,46.33
2022-02-19T05:30:00,mcc,35.61
2022-02-19T05:31:00,mcc,36.00
2022-02-19T05:32:00,mcc,37.39
2022-02-19T05:33:00,mcc,35.37
2022-02-19T05:34:00,mcc,35.11
2022-02-19T05:35:00,mcc,37.17
2022-02-19T05:36:00,mcc,34.94
2022-02-19T05:37:00,mcc,36.76
2022-02-19T05:38:00,mcc,39.84
2022-02-19T05:39:00,mcc,36.02
2022-02-19T05:40:00,mcc,36.32
2022-02-19T05:41:00,mcc,37.42
2022-02-19T05:42:00,mcc,37.13
2022-02-19T05:43:00,mcc,36.56
2022-02-19T05:44:00,mcc,40.17
2022-02-19T05:45:00,mcc,35.15
2022-02-19T05:46:00,mcc,35.90
2022-02-19T05:47:00,mcc,38.86
2022-02-19T05:48:00,mcc,35.06
2022-02-19T05:49:00,mcc,35.44
2022-02-19T05:50:00,mcc,35.27
2022-02-19T05:51:00,mcc,33.87
2022-02-19T05:52:00,mcc,35.59
2022-02-19T05:53:00,mcc,41.65
2022-02-19T05:54:00,mcc,37.13
2022-02-19T05:55:00,mcc,36.62
2022-02-19T05:56:00,mcc,38.02
2022-02-19T05:57:00,mcc,36.42
2022-02-19T05:58:00,mcc,35.32
2022-02-19T05:59:00,mcc,47.10
2022-02-19T06:00:00,mcc,37.52
2022-02-19T06:01:00,mcc,36.92
2022-02-19T06:02:00,mcc,38.41
2022-02-19T06:03:00,mcc,35.31
2022-02-19T06:04:00,mcc,34.25
2022-02-19T06:05:00,mcc,35.35
2022-02-19T06:06:00,mcc,37.14
2022-02-19T06:07:00,mcc,37.62
2022-02-19T06:08:00,mcc,36.87
2022-02-19T06:09:00,mcc,37.51
2022-02-19T06:10:00,mcc,37.01
2022-02-19T06:11:00,mcc,35.99
2022-02-19T06:12:00,mcc,38.50
2022-02-19T06:13:00,mcc,39.42
2022-02-19T06:14:00,mcc,37.83
2022-02-19T06:15:00,mcc,37.15
2022-02-19T06:16:00,mcc,36.13
2022-02-19T06:17:00,mcc,54.85
2022-02-19T06:18:00,mcc,34.47
2022-02-19T06:19:00,mcc,34.47
2022-02-19T06:20:00,mcc,34.57
2022-02-19T06:21:00,mcc,34.20
2022-02-19T06:22:00,mcc,44.77
2022-02-19T06:23:00,mcc,45.40
2022-02-19T06:24:00,mcc,46.25
2022-02-19T06:25:00,mcc,45.22
2022-02-19T06:26:00,mcc,36.45
2022-02-19T06:27:00,mcc,36.04
2022-02-19T06:28:00,mcc,34.54
2022-02-19T06:29:00,mcc,35.75
2022-02-19T06:30:00,mcc,35.65
2022-02-19T06:31:00,mcc,36.09
2022-02-19T06:32:00,mcc,39.51
2022-02-19T06:33:00,mcc,37.79
2022-02-19T06:34:00,mcc,47.00
2022-02-19T06:35:00,mcc,41.53
2022-02-19T06:36:00,mcc,37.94
2022-02-19T06:37:00,mcc,38.14
2022-02-19T06:38:00,mcc,38.54
2022-02-19T06:39:00,mcc,36.76
2022-02-19T06:40:00,mcc,35.76
2022-02-19T06:41:00,mcc,37.08
2022-02-19T06:42:00,mcc,38.99
2022-02-19T06:43:00,mcc,36.05
2022-02-19T06:44:00,mcc,37.78
2022-02-19T06:45:00,mcc,38.11
2022-02-19T06:46:00,mcc,36.87
2022-02-19T06:47:00,mcc,38.14
2022-02-19T06:48:00,mcc,39.77
2022-02-19T06:49:00,mcc,38.28
2022-02-19T06:50:00,mcc,36.82
2022-02-19T06:51:00,mcc,38.35
2022-02-19T06:52:00,mcc,42.76
2022-02-19T06:53:00,mcc,36.67
2022-02-19T06:54:00,mcc,38.76
2022-02-19T06:55:00,mcc,36.29
2022-02-19T06:56:00,mcc,33.64
2022-02-19T06:57:00,mcc,35.88
2022-02-19T06:58:00,mcc,33.77
2022-02-19T06:59:00,mcc,33.91
2022-02-19T07:00:00,mcc,37.13
2022-02-19T07:01:00,mcc,34.93
2022-02-19T07:02:00,mcc,32.87
2022-02-19T07:03:00,mcc,34.46
2022-02-19T07:04:00,mcc,35.77
2022-02-19T07:05:00,mcc,37.07
2022-02-19T07:06:00,mcc,40.38
2022-02-19T07:07:00,mcc,38.54
2022-02-19T07:08:00,mcc,38.50
2022-02-19T07:09:00,mcc,40.83
2022-02-19T07:10:00,mcc,36.50
2022-02-19T07:11:00,mcc,34.18
2022-02-19T07:12:00,mcc,35.49
2022-02-19T07:13:00,mcc,34.04
2022-02-19T07:14:00,mcc,35.09
2022-02-19T07:15:00,mcc,36.28
2022-02-19T07:16:00,mcc,35.21
2022-02-19T07:17:00,mcc,34.77
2022-02-19T07:18:00,mcc,36.23
2022-02-19T07:19:00,mcc,33.99
2022-02-19T07:20:00,mcc,32.25
2022-02-19T07:21:00,mcc,35.87
2022-02-19T07:22:00,mcc,34.91
2022-02-19T07:23:00,mcc,35.49
2022-02-19T07:24:00,mcc,35.81
2022-02-19T07:25:00,mcc,33.39
2022-02-19T07:26:00,mcc,33.40
2022-02-19T07:27:00,mcc,36.41
2022-02-19T07:28:00,mcc,41.31
2022-02-19T07:29:00,mcc,34.06
2022-02-19T07:30:00,mcc,35.58
2022-02-19T07:31:00,mcc,33.73
2022-02-19T07:32:00,mcc,36.65
2022-02-19T07:33:00,mcc,37.83
2022-02-19T07:34:00,mcc,36.32
2022-02-19T07:35:00,mcc,37.62
2022-02-19T07:36:00,mcc,40.45
2022-02-19T07:37:00,mcc,39.06
2022-02-19T07:38:00,mcc,37.89
2022-02-19T07:39:00,mcc,38.95
2022-02-19T07:40:00,mcc,34.92
2022-02-19T07:41:00,mcc,35.04
2022-02-19T07:42:00,mcc,35.07
2022-02-19T07:43:00,mcc,35.02
2022-02-19T07:44:00,mcc,35.81
2022-02-19T07:45:00,mcc,34.34
2022-02-19T07:46:00,mcc,33.74
2022-02-19T07:47:00,mcc,34.34
2022-02-19T07:48:00,mcc,34.63
2022-02-19T07:49:00,mcc,36.25
2022-02-19T07:50:00,mcc,34.85
2022-02-19T07:51:00,mcc,36.48
2022-02-19T07:52:00,mcc,33.92
2022-02-19T07:53:00,mcc,34.51
2022-02-19T07:54:00,mcc,32.82
2022-02-19T07:55:00,mcc,33.32
2022-02-19T07:56:00,mcc,34.32
2022-02-19T07:57:00,mcc,36.22
2022-02-19T07:58:00,mcc,37.08
2022-02-19T07:59:00,mcc,36.21
2022-02-19T08:00:00,mcc,39.90
2022-02-19T08:01:00,mcc,36.79
2022-02-19T08:02:00,mcc,35.56
2022-02-19T08:03:00,mcc,44.73
2022-02-19T08:04:00,mcc,36.72
2022-02-19T08:05:00,mcc,36.34
2022-02-19T08:06:00,mcc,36.43
2022-02-19T08:07:00,mcc,35.20
2022-02-19T08:08:00,mcc,33.61
2022-02-19T08:09:00,mcc,32.60
2022-02-19T08:10:00,mcc,35.40
2022-02-19T08:11:00,mcc,33.59
2022-02-19T08:12:00,mcc,32.52
2022-02-19T08:13:00,mcc,32.89
2022-02-19T08:14:00,mcc,33.42
2022-02-19T08:15:00,mcc,31.72
2022-02-19T08:16:00,mcc,32.88
2022-02-19T08:17:00,mcc,32.30
2022-02-19T08:18:00,mcc,32.00
2022-02-19T08:19:00,mcc,34.20
2022-02-19T08:20:00,mcc,33.01
2022-02-19T08:21:00,mcc,41.80
2022-02-19T08:22:00,mcc,36.04
2022-02-19T08:23:00,mcc,33.50
2022-02-19T08:24:00,mcc,35.59
2022-02-19T08:25:00,mcc,38.47
2022-02-19T08:26:00,mcc,36.16
2022-02-19T08:27:00,mcc,36.04
2022-02-19T08:28:00,mcc,39.56
2022-02-19T08:29:00,mcc,38.89
2022-02-19T08:30:00,mcc,38.34
2022-02-19T08:31:00,mcc,42.38
2022-02-19T08:32:00,mcc,40.77
2022-02-19T08:33:00,mcc,37.94
2022-02-19T08:34:00,mcc,38.48
2022-02-19T08:35:00,mcc,38.22
2022-02-19T08:36:00,mcc,37.03
2022-02-19T08:37:00,mcc,36.57
2022-02-19T08:38:00,mcc,34.48
2022-02-19T08:39:00,mcc,33.97
2022-02-19T08:40:00,mcc,35.80
2022-02-19T08:41:00,mcc,34.74
2022-02-19T08:42:00,mcc,35.14
2022-02-19T08:43:00,mcc,37.07
2022-02-19T08:44:00,mcc,34.93
2022-02-19T08:45:00,mcc,33.49
2022-02-19T08:46:00,mcc,33.48
2022-02-19T08:47:00,mcc,39.35
2022-02-19T08:48:00,mcc,39.56
2022-02-19T08:49:00,mcc,42.05
2022-02-19T08:50:00,mcc,40.63
2022-02-19T08:51:00,mcc,34.57
2022-02-19T08:52:00,mcc,36.51
2022-02-19T08:53:00,mcc,35.22
2022-02-19T08:54:00,mcc,37.83
2022-02-19T08:55:00,mcc,38.44
2022-02-19T08:56:00,mcc,36.79
2022-02-19T08:57:00,mcc,45.19
2022-02-19T08:58:00,mcc,43.31
2022-02-19T08:59:00,mcc,42.22
2022-02-19T09:00:00,mcc,43.38
2022-02-19T09:01:00,mcc,44.32
2022-02-19T09:02:00,mcc,40.51
2022-02-19T09:03:00,mcc,40.50
2022-02-19T09:04:00,mcc,42.26
2022-02-19T09:05:00,mcc,40.84
2022-02-19T09:06:00,mcc,39.90
2022-02-19T09:07:00,mcc,40.53
2022-02-19T09:08:00,mcc,37.30
2022-02-19T09:09:00,mcc,36.08
2022-02-19T09:10:00,mcc,39.40
2022-02-19T09:11:00,mcc,35.72
2022-02-19T09:12:00,mcc,36.34
2022-02-19T09:13:00,mcc,37.47
2022-02-19T09:14:00,mcc,37.56
2022-02-19T09:15:00,mcc,36.90
2022-02-19T09:16:00,mcc,45.37
2022-02-19T09:17:00,mcc,36.55
2022-02-19T09:18:00,mcc,37.10
2022-02-19T09:19:00,mcc,36.26
2022-02-19T09:20:00,mcc,37.91
2022-02-19T09:21:00,mcc,39.14
2022-02-19T09:22:00,mcc,37.83
2022-02-19T09:23:00,mcc,39.98
2022-02-19T09:24:00,mcc,39.47
2022-02-19T09:25:00,mcc,40.07
2022-02-19T09:26:00,mcc,36.35
2022-02-19T09:27:00,mcc,39.13
2022-02-19T09:28:00,mcc,41.27
2022-02-19T09:29:00,mcc,41.01
2022-02-19T09:30:00,mcc,37.65
2022-02-19T09:31:00,mcc,39.53
2022-02-19T09:32:00,mcc,37.36
2022-02-19T09:33:00,mcc,38.64
2022-02-19T09:34:00,mcc,49.57
2022-02-19T09:35:00,mcc,38.19
2022-02-19T09:36:00,mcc,37.92
2022-02-19T09:37:00,mcc,39.73
2022-02-19T09:38:00,mcc,38.26
2022-02-19T09:39:00,mcc,37.73
2022-02-19T09:40:00,mcc,39.66
2022-02-19T09:41:00,mcc,37.86
2022-02-19T09:42:00,mcc,37.15
2022-02-19T09:43:00,mcc,39.03
2022-02-19T09:44:00,mcc,37.65
2022-02-19T09:45:00,mcc,36.42
2022-02-19T09:46:00,mcc,37.69
2022-02-19T09:47:00,mcc,34.89
2022-02-19T09:48:00,mcc,36.89
2022-02-19T09:49:00,mcc,37.77
2022-02-19T09:50:00,mcc,40.55
2022-02-19T09:51:00,mcc,38.98
2022-02-19T09:52:00,mcc,38.79
2022-02-19T09:53:00,mcc,39.09
2022-02-19T09:54:00,mcc,37.96
2022-02-19T09:55:00,mcc,40.69
2022-02-19T09:56:00,mcc,41.37
2022-02-19T09:57:00,mcc,42.31
2022-02-19T09:58:00,mcc,41.18
2022-02-19T09:59:00,mcc,39.42
2022-02-19T10:00:00,mcc,40.99
2022-02-19T10:01:00,mcc,40.38
2022-02-19T10:02:00,mcc,39.75
2022-02-19T10:03:00,mcc,38.96
2022-02-19T10:04:00,mcc,38.14
2022-02-19T10:05:00,mcc,38.24
2022-02-19T10:06:00,mcc,39.40
2022-02-19T10:07:00,mcc,39.45
2022-02-19T10:08:00,mcc,40.48
2022-02-19T10:09:00,mcc,40.97
2022-02-19T10:10:00,mcc,38.61
2022-02-19T10:11:00,mcc,39.83
2022-02-19T10:12:00,mcc,37.86
2022-02-19T10:13:00,mcc,48.68
2022-02-19T10:14:00,mcc,48.90
2022-02-19T10:15:00,mcc,47.31
2022-02-19T10:16:00,mcc,38.09
2022-02-19T10:17:00,mcc,38.66
2022-02-19T10:18:00,mcc,39.54
2022-02-19T10:19:00,mcc,36.85
2022-02-19T10:20:00,mcc,39.78
2022-02-19T10:21:00,mcc,36.10
2022-02-19T10:22:00,mcc,35.87
2022-02-19T10:23:00,mcc,39.23
2022-02-19T10:24:00,mcc,39.68
2022-02-19T10:25:00,mcc,40.49
2022-02-19T10:26:00,mcc,40.17
2022-02-19T10:27:00,mcc,38.44
2022-02-19T10:28:00,mcc,38.57
2022-02-19T10:29:00,mcc,47.63
2022-02-19T10:30:00,mcc,39.06
2022-02-19T10:31:00,mcc,38.25
2022-02-19T10:32:00,mcc,40.08
2022-02-19T10:33:00,mcc,37.95
2022-02-19T10:34:00,mcc,36.74
2022-02-19T10:35:00,mcc,39.47
2022-02-19T10:36:00,mcc,37.24
2022-02-19T10:37:00,mcc,37.55
2022-02-19T10:38:00,mcc,38.16
2022-02-19T10:39:00,mcc,36.54
2022-02-19T10:40:00,mcc,36.49
2022-02-19T10:41:00,mcc,37.98
2022-02-19T10:42:00,mcc,37.86
2022-02-19T10:43:00,mcc,42.91
2022-02-19T10:44:00,mcc,45.13
2022-02-19T10:45:00,mcc,40.26
2022-02-19T10:46:00,mcc,41.19
2022-02-19T10:47:00,mcc,40.69
2022-02-19T10:48:00,mcc,37.77
2022-02-19T10:49:00,mcc,36.81
2022-02-19T10:50:00,mcc,38.25
2022-02-19T10:51:00,mcc,36.26
2022-02-19T10:52:00,mcc,39.64
2022-02-19T10:53:00,mcc,43.08
2022-02-19T10:54:00,mcc,41.17
2022-02-19T10:55:00,mcc,40.00
2022-02-19T10:56:00,mcc,39.35
2022-02-19T10:57:00,mcc,40.37
2022-02-19T10:58:00,mcc,42.78
2022-02-19T10:59:00,mcc,43.58
2022-02-19T11:00:00,mcc,41.75
2022-02-19T11:01:00,mcc,38.73
2022-02-19T11:02:00,mcc,42.65
2022-02-19T11:03:00,mcc,39.35
2022-02-19T11:04:00,mcc,38.24
2022-02-19T11:05:00,mcc,42.62
2022-02-19T11:06:00,mcc,41.09
2022-02-19T11:07:00,mcc,41.51
2022-02-19T11:08:00,mcc,41.05
2022-02-19T11:09:00,mcc,39.44
2022-02-19T11:10:00,mcc,40.92
2022-02-19T11:11:00,mcc,43.13
2022-02-19T11:12:00,mcc,43.26
2022-02-19T11:13:00,mcc,42.07
2022-02-19T11:14:00,mcc,43.87
2022-02-19T11:15:00,mcc,41.78
2022-02-19T11:16:00,mcc,41.55
2022-02-19T11:17:00,mcc,43.93
2022-02-19T11:18:00,mcc,41.34
2022-02-19T11:19:00,mcc,42.62
2022-02-19T11:20:00,mcc,43.92
2022-02-19T11:21:00,mcc,42.50
2022-02-19T11:22:00,mcc,43.35
2022-02-19T11:23:00,mcc,49.48
2022-02-19T11:24:00,mcc,43.24
2022-02-19T11:25:00,mcc,42.37
2022-02-19T11:26:00,mcc,43.04
2022-02-19T11:27:00,mcc,44.52
2022-02-19T11:28:00,mcc,41.32
2022-02-19T11:29:00,mcc,38.85
2022-02-19T11:30:00,mcc,39.79
2022-02-19T11:31:00,mcc,38.34
2022-02-19T11:32:00,mcc,38.45
2022-02-19T11:33:00,mcc,42.46
2022-02-19T11:34:00,mcc,42.33
2022-02-19T11:35:00,mcc,42.64
2022-02-19T11:36:00,mcc,44.27
2022-02-19T11:37:00,mcc,37.98
2022-02-19T11:38:00,mcc,38.23
2022-02-19T11:39:00,mcc,39.77
2022-02-19T11:40:00,mcc,39.03
2022-02-19T11:41:00,mcc,40.85
2022-02-19T11:42:00,mcc,43.41
2022-02-19T11:43:00,mcc,40.44
2022-02-19T11:44:00,mcc,36.82
2022-02-19T11:45:00,mcc,37.44
2022-02-19T11:46:00,mcc,37.09
2022-02-19T11:47:00,mcc,36.91
2022-02-19T11:48:00,mcc,42.90
2022-02-19T11:49:00,mcc,40.61
2022-02-19T11:50:00,mcc,43.17
2022-02-19T11:51:00,mcc,44.64
2022-02-19T11:52:00,mcc,39.71
2022-02-19T11:53:00,mcc,41.90
2022-02-19T11:54:00,mcc,46.35
2022-02-19T11:55:00,mcc,47.08
2022-02-19T11:56:00,mcc,49.09
2022-02-19T11:57:00,mcc,45.85
2022-02-19T11:58:00,mcc,43.52
2022-02-19T11:59:00,mcc,48.23
2022-02-19T12:00:00,mcc,42.67
2022-02-19T12:01:00,mcc,39.45
2022-02-19T12:02:00,mcc,37.10
2022-02-19T12:03:00,mcc,45.17
2022-02-19T12:04:00,mcc,41.42
2022-02-19T12:05:00,mcc,40.41
2022-02-19T12:06:00,mcc,41.14
2022-02-19T12:07:00,mcc,37.51
2022-02-19T12:08:00,mcc,38.21
2022-02-19T12:09:00,mcc,38.97
2022-02-19T12:10:00,mcc,37.49
2022-02-19T12:11:00,mcc,37.48
2022-02-19T12:12:00,mcc,39.66
2022-02-19T12:13:00,mcc,37.84
2022-02-19T12:14:00,mcc,38.91
2022-02-19T12:15:00,mcc,40.83
2022-02-19T12:16:00,mcc,40.71
2022-02-19T12:17:00,mcc,41.86
2022-02-19T12:18:00,mcc,42.96
2022-02-19T12:19:00,mcc,39.04
2022-02-19T12:20:00,mcc,39.24
2022-02-19T12:21:00,mcc,40.26
2022-02-19T12:22:00,mcc,40.44
2022-02-19T12:23:00,mcc,40.29
2022-02-19T12:24:00,mcc,40.10
2022-02-19T12:25:00,mcc,38.18
2022-02-19T12:26:00,mcc,37.99
2022-02-19T12:27:00,mcc,39.49
2022-02-19T12:28:00,mcc,37.83
2022-02-19T12:29:00,mcc,36.92
2022-02-19T12:30:00,mcc,41.77
2022-02-19T12:31:00,mcc,38.29
2022-02-19T12:32:00,mcc,36.94
2022-02-19T12:33:00,mcc,38.11
2022-02-19T12:34:00,mcc,53.86
2022-02-19T12:35:00,mcc,46.68
2022-02-19T12:36:00,mcc,46.02
2022-02-19T12:37:00,mcc,45.22
2022-02-19T12:38:00,mcc,49.68
2022-02-19T12:39:00,mcc,48.90
2022-02-19T12:40:00,mcc,46.52
2022-02-19T12:41:00,mcc,38.61
2022-02-19T12:42:00,mcc,41.86
2022-02-19T12:43:00,mcc,43.93
2022-02-19T12:44:00,mcc,40.90
2022-02-19T12:45:00,mcc,40.90
2022-02-19T12:46:00,mcc,42.70
2022-02-19T12:47:00,mcc,42.90
2022-02-19T12:48:00,mcc,44.18
2022-02-19T12:49:00,mcc,47.12
2022-02-19T12:50:00,mcc,43.36
2022-02-19T12:51:00,mcc,41.26
2022-02-19T12:52:00,mcc,41.43
2022-02-19T12:53:00,mcc,39.38
2022-02-19T12:54:00,mcc,40.43
2022-02-19T12:55:00,mcc,43.98
2022-02-19T12:56:00,mcc,40.60
2022-02-19T12:57:00,mcc,41.44
2022-02-19T12:58:00,mcc,43.02
2022-02-19T12:59:00,mcc,42.77
2022-02-19T13:00:00,mcc,43.80
2022-02-19T13:01:00,mcc,46.29
2022-02-19T13:02:00,mcc,44.52
2022-02-19T13:03:00,mcc,44.25
2022-02-19T13:04:00,mcc,43.51
2022-02-19T13:05:00,mcc,41.30
2022-02-19T13:06:00,mcc,41.83
2022-02-19T13:07:00,mcc,44.76
2022-02-19T13:08:00,mcc,41.57
2022-02-19T13:09:00,mcc,46.04
2022-02-19T13:10:00,mcc,45.45
2022-02-19T13:11:00,mcc,43.69
2022-02-19T13:12:00,mcc,51.23
2022-02-19T13:13:00,mcc,43.64
2022-02-19T13:14:00,mcc,44.10
2022-02-19T13:15:00,mcc,45.06
2022-02-19T13:16:00,mcc,45.69
2022-02-19T13:17:00,mcc,45.15
2022-02-19T13:18:00,mcc,42.36